COSMOS 1700 DEB, 40924

Orbit data source: Space-Track

COSMOS 1700 DEB, 40924 is space debris in GEO originally from a launch on Fri, 25 Oct 1985 UTC launched from the Tyuratam Missile And Space Complex (TTMTR). Debris objects in space refer to the collection of defunct objects orbiting the Earth. Examples of debris include non-operational satellites, rocket bodies, and fragments generated from explosions, collisions, or faulty payload assembly.

Not visible in the next 10 days
Identifier
40924, 1985-102G
Orbit
GEO
Country
Flag of CISCIS
Related business
Manufacturer
NPO PM
Mission
Spacecraft
Bus & Motor
Unknown
Mass
Unknown
Launch date (UTC)
1985-10-25 (41 years ago)
Launch vehicle
Unknown
Launch site
Tyuratam Missile And Space Complex (TTMTR)
Object type
Payload
Rocket body
Debris
Shape & HBR
Unknown shape, 1.1 m
Radar Cross Section
Medium (>0.1 m² and <1 m²)

Expand to show TLE details & history
Last TLE update: 2 days ago

TLE from 2 days ago
0 COSMOS 1700 DEB
1 40924U 85102G   26171.00786885  .00000092  00000-0  00000-0 0  9995
2 40924   9.6872 318.7881 0026457 131.3792 230.7943  1.00250512 67466
Epoch: 2026-06-20T00:11Z
TLE epoch observation values (Epoch: 2026-06-20T00:11:19.868Z)
Latitude
0.32026°
Longitude
49.6279°
Altitude
35,863.018 km
Speed
3.069 km/s
True Right ascension
21h 22m 45s
True Declination
0° 19' 12"
Sunlit
Object was in daylight at epoch
Visualization orbit readout
Latitude
Unknown
Longitude
Unknown
Altitude
Unknown
Speed
Unknown
Apparent Right ascension
Unknown
Apparent Declination
Unknown
Sunlit
N/A
Visualization observer readout
Local Sidereal Time
21:36:03
Azimuth
Unknown
Elevation
Unknown
Doppler factor
Unknown
Orbital elements
Apogee altitude
35,905.159 km
Perigee altitude
35,682.012 km
Semi-major axis
42,171.722 km
Eccentricity
0.00265
Inclination
9.6872°
RAAN
318.7881°
Arg. of periapsis
131.3792°
True anomaly
230.55987°
Mean anomaly
230.7943°
Eccentric anomaly
230.67703°
Mean motion
0.25062 °/min
Orbital period
1,436.45 mins
BSTAR
0
Loading maneuver chart data...
Computing Atmospheric mass density...
Loading historical data...
Loading historical data...
Loading historical data...
Loading historical data...
Loading historical data...
Loading historical data...
Loading historical data...

Documentation

Showing up to 5 results
|